EHI
12 11 10 14 24 34 34 28 22 16 7 2 4 8 8 6 5 6 8 8 7 6 6 5 4 4 4 3 2 1 2 3 3 2 2 4 6 8 10 10 8 6 4
19 18 17 20 30 38 38 31 26 20 12 5 5 7 7 5 5 9 12 12 10 9 8 7 6 5 6 7 7 5 5 5 5 4 3 3 3 4 6 8 8 7 6
26 26 24 26 35 43 40 33 30 26 17 10 7 7 8 7 7 13 18 17 15 13 10 9 9 8 9 11 13 12 11 9 7 7 6 4 2 2 3 5 7 8 9
29 29 29 30 36 40 37 35 34 31 23 14 8 8 11 10 9 13 20 20 18 15 13 11 11 11 10 12 15 17 16 13 9 7 6 5 3 4 4 5 7 11 12
27 30 32 33 33 33 34 37 38 34 27 19 12 10 11 10 9 14 20 20 18 17 16 15 15 14 12 14 16 19 19 16 11 8 6 6 6 7 7 6 8 13 14
23 29 35 35 31 30 34 40 42 39 31 23 17 14 13 10 10 15 19 19 19 22 24 24 23 19 17 18 19 20 20 18 14 11 9 8 9 9 9 8 9 12 15
23 32 40 39 35 33 37 45 48 44 37 28 22 20 18 13 11 13 16 16 19 25 30 32 30 25 21 20 21 20 20 18 16 14 11 10 8 8 8 8 8 10 12
27 34 41 42 40 38 42 49 52 48 41 33 27 25 23 16 11 12 12 12 15 22 30 34 32 28 23 22 22 20 18 17 16 15 14 10 8 7 9 9 9 9 10
29 32 36 38 39 40 45 51 53 49 43 38 32 28 25 18 15 18 18 15 15 20 28 33 34 30 25 25 24 20 17 17 17 17 16 13 11 11 12 12 12 12 12
31 30 31 33 35 39 42 47 51 50 46 42 36 31 28 24 23 26 27 25 24 25 30 36 36 32 27 26 25 22 18 19 20 19 18 16 15 15 16 16 16 16 16
34 33 30 31 34 36 38 42 47 48 46 44 40 36 34 32 30 31 33 33 32 33 36 38 37 34 30 28 26 22 20 21 22 21 20 18 17 18 18 17 17 17 17
36 35 34 36 37 37 37 40 43 45 45 44 42 40 39 37 36 36 36 37 37 38 39 38 37 35 34 32 28 22 20 22 23 22 20 19 19 20 19 16 16 17 16
38 38 40 43 44 44 42 42 42 42 43 43 42 40 39 40 40 40 39 40 41 41 40 38 38 38 38 37 33 26 22 23 22 21 21 20 22 22 19 17 16 16 15
41 43 47 51 52 52 50 47 42 39 39 41 42 40 41 41 42 41 40 40 41 41 40 39 39 40 39 38 34 27 24 24 23 22 22 22 22 22 20 18 17 15 14
44 47 53 59 61 60 57 52 46 42 42 44 44 44 43 43 42 40 38 38 39 39 39 38 38 38 36 32 29 25 23 24 23 21 21 20 18 17 16 16 15 14 13
45 50 60 67 70 68 62 56 52 51 53 53 50 48 45 43 42 40 37 37 37 38 38 37 36 35 30 24 20 20 21 22 22 20 19 18 15 12 12 12 11 11 10
49 53 61 68 70 67 63 58 55 57 60 58 53 49 45 43 41 40 39 38 38 38 37 36 34 33 28 19 13 14 19 21 21 20 18 17 14 12 11 10 8 7 7
53 55 57 59 62 61 59 56 53 54 57 54 50 48 45 42 41 41 41 41 40 39 38 36 34 32 26 16 9 9 15 19 20 21 19 17 15 13 11 10 8 8 9
54 53 50 49 51 53 54 54 51 50 50 48 47 47 45 43 42 42 42 43 42 42 40 37 35 33 26 15 7 7 12 16 18 19 18 16 13 11 9 9 11 11 12
48 47 45 43 44 47 49 50 50 47 44 44 46 47 45 43 42 43 43 43 42 41 39 36 35 34 27 15 6 6 11 15 16 17 16 13 10 7 6 8 10 11 11
41 42 43 43 42 44 46 47 49 47 45 45 48 48 45 42 40 41 41 40 38 36 33 31 32 32 26 14 6 4 9 13 14 15 15 12 6 3 3 4 6 7 7
37 38 41 43 44 45 45 47 49 49 48 48 49 49 47 42 39 40 38 35 33 30 26 26 28 28 23 14 6 3 4 8 11 12 12 9 4 1 1 1 3 4 5
35 37 39 41 44 45 46 47 49 48 47 46 46 47 46 41 38 36 34 31 29 26 23 23 24 25 22 15 8 4 2 3 5 7 6 5 2 1 0 1 2 4 5
34 35 36 38 40 41 41 42 42 43 42 42 42 41 39 35 31 30 29 28 27 24 23 23 23 21 19 15 11 7 4 2 2 3 3 3 2 1 2 2 3 4 5
32 32 33 34 34 35 35 34 35 36 37 37 37 34 30 26 24 23 23 23 21 20 19 18 19 18 15 11 8 7 5 3 3 3 3 3 3 3 3 3 5 5 4
29 29 29 29 30 31 30 30 32 32 33 34 32 29 25 22 19 19 19 16 15 14 12 13 15 15 10 5 4 4 4 3 3 3 3 3 3 3 3 4 5 5 4
Wind_Speed
12 11 10 10 9 8 7 5 5 4 3 2 2 2 2 2 2 3 3 3 3 3 1 1 2 1 1 1 1 2 2 1 2 1 1 0 1 1 2 2 2 3 3
12 11 10 10 10 9 7 6 5 5 3 3 2 2 2 2 3 2 3 4 3 3 3 2 2 2 2 2 1 1 1 1 1 1 2 1 0 1 2 2 2 2 2
14 12 11 10 10 10 9 7 6 5 4 3 3 2 2 1 2 3 3 3 4 4 2 3 2 1 2 2 2 2 2 1 1 1 1 2 2 1 1 2 2 2 2
15 14 12 11 10 10 9 8 7 5 4 4 3 4 4 3 3 3 3 4 4 4 3 3 2 1 1 2 2 2 2 2 2 2 1 1 1 2 1 0 1 2 2
15 14 13 11 11 11 10 9 7 5 5 4 4 3 3 3 3 3 4 4 3 3 3 3 2 2 1 1 1 1 1 2 2 2 1 1 1 2 2 2 2 1 1
14 14 13 12 11 11 10 10 8 6 5 5 4 3 2 1 2 3 4 3 3 3 4 4 3 2 2 2 2 2 2 2 2 1 1 1 1 2 2 2 3 2 1
13 14 13 12 11 11 11 10 9 7 6 6 4 4 3 2 2 3 3 3 3 3 3 3 3 2 2 2 2 2 2 2 2 2 2 2 2 1 1 2 2 2 2
13 14 13 12 11 11 10 10 10 8 8 6 5 4 4 3 3 3 3 3 2 2 4 4 3 3 2 2 2 2 3 2 2 3 2 2 2 1 1 2 2 2 2
14 14 14 13 12 11 10 10 9 8 7 7 6 5 5 4 3 4 4 2 2 3 5 4 3 3 2 2 2 1 1 1 2 2 2 2 2 1 1 1 2 2 2
12 13 13 13 12 11 10 9 10 8 7 7 6 6 5 5 4 3 4 2 2 2 4 4 4 3 3 2 2 2 2 2 2 1 1 1 1 1 1 1 2 2 2
10 10 11 12 12 11 11 10 9 8 7 7 6 5 5 5 5 4 3 4 3 3 3 3 3 3 3 3 3 3 3 3 3 2 2 2 2 1 1 1 1 1 2
9 9 10 10 10 11 11 10 10 10 8 7 6 5 5 5 5 5 4 4 4 4 4 4 4 4 4 3 3 4 3 3 3 2 2 2 2 1 1 1 1 1 2
8 8 8 8 8 7 7 8 8 8 9 8 7 6 5 5 5 4 4 4 4 4 4 4 4 4 4 4 4 3 3 3 3 2 2 2 1 2 1 2 1 1 1
7 7 7 6 6 6 5 6 7 7 7 7 7 6 5 5 4 4 4 4 4 4 4 4 3 3 3 3 3 3 3 2 2 2 2 2 2 2 2 2 2 1 1
7 7 6 5 5 5 5 5 5 5 5 6 7 6 5 5 4 4 4 4 4 5 4 4 4 3 3 3 2 2 3 2 2 2 2 1 1 1 1 1 1 1 2
6 5 6 5 5 4 4 3 3 4 4 4 5 5 5 4 4 4 4 4 4 4 4 4 4 4 4 3 3 2 2 2 2 2 2 3 3 3 2 2 1 1 2
5 4 3 4 4 4 3 3 3 3 4 3 3 4 4 4 4 5 4 5 5 4 4 4 4 4 3 4 4 3 3 3 3 3 3 3 3 4 3 3 3 3 3
5 4 3 3 3 3 4 3 4 4 4 4 4 4 4 4 4 4 4 4 4 4 4 5 5 4 4 6 5 5 4 4 3 3 3 3 2 3 3 3 3 3 3
4 3 2 2 3 3 2 2 3 3 3 3 3 4 4 4 4 4 4 4 4 4 4 4 5 5 4 7 7 6 4 4 4 4 4 4 4 4 4 4 4 4 3
3 3 3 3 3 2 2 2 2 1 1 1 2 2 3 3 4 4 4 3 3 3 4 4 4 5 5 8 9 8 4 4 4 3 4 4 4 4 5 5 4 4 4
4 4 3 3 2 2 2 1 1 1 0 0 0 1 2 3 3 3 3 3 3 4 4 4 4 4 5 7 9 9 5 4 3 3 3 3 5 6 6 6 5 5 3
4 3 3 3 2 1 1 1 1 0 0 0 0 1 1 3 3 2 3 4 4 5 5 5 5 4 4 5 8 9 9 5 4 3 3 3 6 7 7 6 5 5 4
3 3 3 2 2 2 1 1 0 1 1 0 1 1 1 1 2 3 4 4 4 5 4 4 4 4 3 4 7 9 9 8 5 3 3 3 5 6 5 8 7 6 4
3 3 2 2 2 2 1 1 1 0 1 1 2 2 1 2 2 2 3 3 4 4 4 4 4 4 3 3 3 4 4 6 6 4 3 4 6 5 5 5 5 5 4
3 2 1 1 1 1 1 1 1 0 1 1 2 2 3 3 2 2 2 3 3 4 4 4 3 3 4 3 4 3 3 4 4 3 3 3 3 4 4 4 4 5 4
3 2 2 2 1 1 1 1 1 1 1 2 3 3 3 2 3 3 2 2 3 3 4 5 5 4 4 4 5 5 5 5 5 4 4 5 5 5 5 5 5 5 4
Wind_Direction
152 152 153 147 145 143 143 147 147 139 147 146 157 163 160 153 145 146 148 149 151 148 156 138 147 177 136 138 155 151 167 182 175 143 103 96 172 157 144 138 136 138 133
155 155 159 155 153 151 152 155 156 154 166 154 162 173 157 156 147 144 149 161 155 157 164 158 172 175 151 157 172 162 161 212 183 147 141 141 40 25 121 129 143 136 132
161 162 167 164 158 157 161 167 163 162 172 165 174 160 147 163 144 150 153 166 166 164 171 162 176 177 171 164 177 188 186 200 227 202 174 168 180 151 80 132 124 118 108
164 167 169 168 164 162 164 158 159 161 167 179 187 179 175 180 160 158 156 164 168 168 171 158 163 183 175 154 195 171 195 192 224 225 220 208 150 151 147 75 114 126 125
165 167 167 168 167 164 162 158 157 163 170 183 188 199 185 176 155 151 154 164 166 170 165 154 160 169 181 176 201 140 211 215 225 228 208 193 172 185 162 175 170 138 127
162 163 163 163 167 166 164 162 160 166 173 186 187 191 199 188 150 157 161 180 169 171 171 161 163 174 185 184 193 201 203 221 234 240 234 211 197 198 177 169 165 160 151
159 158 159 164 167 168 166 162 159 165 174 183 183 183 188 189 178 183 179 193 174 167 166 161 161 180 185 190 188 191 216 216 218 228 237 238 245 208 169 154 155 153 154
159 159 162 161 165 166 162 158 162 168 174 178 177 176 183 194 193 205 201 193 190 158 152 161 171 191 197 194 183 198 206 203 219 229 229 245 258 267 163 163 157 169 177
160 162 164 166 169 168 163 160 160 167 174 175 169 179 192 204 198 185 202 204 185 172 158 169 175 184 200 200 173 203 224 197 217 230 216 230 229 233 222 163 170 179 193
163 164 165 167 167 165 161 160 159 165 169 172 180 182 191 197 198 197 190 190 187 173 162 181 180 181 189 199 197 202 200 206 214 222 224 241 253 229 225 200 220 204 191
155 157 162 164 162 163 164 163 160 166 173 177 185 180 180 190 196 201 189 185 188 179 184 194 189 189 198 203 210 220 205 205 210 214 201 211 242 237 242 218 219 203 172
148 155 157 157 160 165 168 168 170 176 180 179 180 181 181 187 196 196 189 186 186 190 194 193 201 206 203 205 213 229 224 211 212 219 210 218 207 207 251 258 245 214 184
138 147 145 148 152 159 163 165 172 178 180 177 181 181 189 190 195 193 187 189 191 197 197 196 206 213 208 205 211 220 234 220 210 208 211 217 202 212 231 240 236 234 200
132 140 138 145 147 154 154 156 168 176 179 175 180 180 187 186 189 190 186 187 189 194 203 205 209 215 211 209 210 213 219 220 213 193 196 201 203 213 236 229 226 227 206
134 135 142 146 149 145 141 149 164 168 173 174 181 181 184 186 187 187 188 189 196 202 197 202 211 213 217 223 219 230 213 207 205 190 191 173 157 160 213 235 222 209 212
135 140 139 134 133 131 140 149 164 155 148 166 176 171 179 188 193 193 190 189 201 207 199 204 213 219 220 182 189 225 224 204 212 209 204 189 164 162 165 156 148 189 213
111 100 111 122 129 139 143 157 157 145 151 166 172 169 182 197 204 208 199 197 203 207 209 217 216 215 193 188 188 201 223 212 215 221 223 231 202 188 189 198 200 212 231
105 99 103 114 129 135 145 150 158 162 167 174 184 186 186 200 205 213 210 209 208 211 213 221 222 217 208 197 195 202 224 226 217 220 217 218 215 209 209 219 215 220 230
93 95 99 98 98 106 107 124 157 166 177 188 196 194 193 198 201 212 217 218 216 217 219 223 222 223 209 196 196 202 227 229 224 221 217 213 213 204 212 218 225 225 226
95 90 81 78 81 88 113 118 134 148 188 213 213 195 189 200 212 220 220 222 221 227 232 235 230 227 212 196 198 199 225 229 225 221 217 207 203 192 205 220 227 230 229
91 84 78 72 69 71 96 132 153 153 241 304 248 214 196 205 215 217 214 220 226 227 232 236 237 230 210 194 197 196 216 231 230 229 227 204 189 200 214 227 235 234 238
85 80 73 72 75 77 90 141 164 92 68 105 234 236 226 241 234 208 211 218 227 233 235 234 240 232 209 194 201 203 213 231 239 241 232 201 197 203 215 224 232 227 232
67 73 65 53 45 60 79 80 44 68 67 153 202 217 212 231 233 222 224 227 228 235 234 232 235 232 210 191 194 205 217 225 233 252 244 225 204 207 216 225 222 215 219
46 54 67 49 28 33 46 42 5 158 190 223 218 215 212 234 256 249 238 238 238 238 239 238 234 232 222 202 190 198 211 219 228 241 248 216 208 220 226 214 215 217 224
24 21 26 26 6 12 11 359 349 232 251 260 250 237 234 232 234 241 252 251 247 236 236 248 240 238 235 222 202 206 212 214 214 207 218 219 208 214 217 215 213 216 216
6 2 356 343 339 350 341 325 306 253 268 267 258 250 248 240 232 226 236 263 244 240 236 244 236 232 226 216 205 207 212 214 194 198 224 223 219 220 223 222 220 219 219